Weather reports worldwide

Advertisment
Loch Glascarnoch, United Kingdom (3031): temperature & dewpoint: 21.04.2018 00:00:00 - 27.04.2018 00:00:00 (BST)Loch Glascarnoch, United Kingdom (3031): temperature -20cm & temperature -100cm: 21.04.2018 00:00:00 - 27.04.2018 00:00:00 (BST)Loch Glascarnoch, United Kingdom (3031): wind speed & gusts: 21.04.2018 00:00:00 - 27.04.2018 00:00:00 (BST)Loch Glascarnoch, United Kingdom (3031): wind direction: 21.04.2018 00:00:00 - 27.04.2018 00:00:00 (BST)Loch Glascarnoch, United Kingdom (3031): reduced air pressure: 21.04.2018 00:00:00 - 27.04.2018 00:00:00 (BST)Loch Glascarnoch, United Kingdom (3031): visibility: 21.04.2018 00:00:00 - 27.04.2018 00:00:00 (BST)Loch Glascarnoch, United Kingdom (3031): sunshine duration: 21.04.2018 00:00:00 - 27.04.2018 00:00:00 (BST)Loch Glascarnoch, United Kingdom (3031): precipitation: 21.04.2018 00:00:00 - 27.04.2018 00:00:00 (BST)
Date & Time tt [°C] td [°C] tt -20cm [°C] tt -100cm [°C] ff [km/h] ff [kn] fx [km/h] fx [kn] dd ppp [hPa] vv [km] sd [min] rr [mm]
27.04.2018 00:00:00 - - - - - - - - - - - - -
26.04.2018 23:00:00 4,3 3,7 - - 9 5 - - WNW 1007,7 5 0 0,0
26.04.2018 22:00:00 4,0 3,2 - - 5 3 - - WNW 1007,5 45 0 0,4
26.04.2018 21:00:00 4,6 3,7 - - 9 5 - - W 1007,1 11 0 0,8
26.04.2018 20:00:00 5,0 3,7 - - 13 7 - - W 1006,5 15 0 2,0
26.04.2018 19:00:00 5,9 4,3 - - 18 10 - - WNW 1006,0 20 0 0,8
26.04.2018 18:00:00 6,0 4,4 - - 28 15 - - WNW 1005,6 12 6 0,6
26.04.2018 17:00:00 6,0 3,8 - - 26 14 - - WNW 1005,1 6 0 0,8
26.04.2018 16:00:00 5,7 4,7 - - 24 13 - - W 1005,0 13 6 1,4
26.04.2018 15:00:00 6,6 5,6 - - 28 15 - - W 1004,0 45 6 2,6
26.04.2018 14:00:00 7,7 4,3 - - 29 16 46 25 W 1003,1 10 18 0,2
26.04.2018 13:00:00 6,6 4,6 - - 31 17 48 26 W 1002,8 9 12 0,2
26.04.2018 12:00:00 7,7 6,4 - - 37 20 52 28 W 1001,7 13 24 0,4
26.04.2018 11:00:00 7,1 5,5 - - 34 18 48 26 W 1001,3 9 18 1,0
26.04.2018 10:00:00 6,0 4,9 7,5 6,7 26 14 54 29 WNW 1001,1 13 6 2,0
26.04.2018 09:00:00 5,8 3,2 - - 29 16 50 27 W 1000,4 45 0 0,2
26.04.2018 08:00:00 5,4 2,1 - - 35 19 - - W 1000,1 45 0 0,0
26.04.2018 07:00:00 4,7 1,5 - - 26 14 - - W 1000,0 50 0 0,0
26.04.2018 06:00:00 4,4 1,3 - - 28 15 - - W 999,9 50 0 0,0
26.04.2018 05:00:00 4,4 1,8 - - 26 14 - - W 1000,1 16 0 0,0
26.04.2018 04:00:00 3,8 2,1 - - 24 13 - - W 1000,1 50 0 0,2
26.04.2018 03:00:00 4,0 2,6 - - 15 8 - - W 1000,1 22 0 0,2
26.04.2018 02:00:00 4,6 3,2 - - 15 8 - - W 1000,1 28 0 0,4
26.04.2018 01:00:00 4,5 3,1 - - 15 8 - - WSW 1000,1 15 - 0,0
26.04.2018 00:00:00 4,6 3,0 - - 11 6 - - SW 1000,3 30 0 0,2
25.04.2018 23:00:00 3,9 2,9 - - 2 1 - - N 1000,6 13 0 0,2
25.04.2018 22:00:00 4,2 2,9 - - 15 8 - - W 1001,1 22 0 0,2
25.04.2018 21:00:00 3,4 2,2 - - 9 5 - - NW 1001,1 50 0 1,2
25.04.2018 20:00:00 6,0 2,9 - - 18 10 - - W 1000,4 50 6 0,0
25.04.2018 19:00:00 6,1 3,9 - - 16 9 - - WNW 1000,1 23 0 0,2
25.04.2018 18:00:00 6,7 2,6 - - 21 11 - - SW 1000,1 45 6 0,8
25.04.2018 17:00:00 7,2 3,8 - - 9 5 - - NW 1000,0 45 0 0,2
25.04.2018 16:00:00 7,5 2,5 - - 24 13 - - W 1000,1 17 0 0,2
25.04.2018 15:00:00 6,0 3,3 - - 34 18 - - WSW 1000,8 7 18 0,4
25.04.2018 14:00:00 6,0 3,2 - - 26 14 48 26 W 1000,6 9 18 0,6
25.04.2018 13:00:00 8,4 3,3 - - 15 8 - - W 999,9 45 18 0,2
25.04.2018 12:00:00 7,1 2,8 - - 18 10 - - SW 1000,4 30 30 0,0
25.04.2018 11:00:00 7,7 4,5 - - 18 10 - - WSW 1000,2 35 18 0,2
25.04.2018 10:00:00 6,4 3,9 7,4 6,7 21 11 - - WSW 1000,3 7 0 0,4
25.04.2018 09:00:00 6,4 4,2 - - 16 9 - - SW 1000,3 12 0 0,2
25.04.2018 08:00:00 5,8 3,7 - - 5 3 - - WSW 1000,5 14 0 0,2
25.04.2018 07:00:00 5,0 3,4 - - 9 5 - - SW 1000,8 20 0 0,4
25.04.2018 06:00:00 4,9 3,5 - - 8 4 - - SSW 1001,0 21 0 0,0
25.04.2018 05:00:00 4,4 2,4 - - 13 7 - - SSW 1001,2 50 0 0,0
25.04.2018 04:00:00 3,6 2,8 - - 0 0 - - N 1001,6 45 0 0,0
25.04.2018 03:00:00 2,7 1,5 - - 4 2 - - WSW 1002,1 40 0 0,0
25.04.2018 02:00:00 4,0 2,7 - - 2 1 - - NE 1002,1 45 0 0,0
25.04.2018 01:00:00 4,1 3,1 - - 2 1 - - W 1002,4 40 - 0,0
25.04.2018 00:00:00 4,5 2,8 - - 13 7 - - W 1002,6 45 0 0,0
24.04.2018 23:00:00 4,0 3,0 - - 11 6 - - WNW 1002,9 50 0 0,2
24.04.2018 22:00:00 5,2 3,8 - - 9 5 - - W 1003,1 28 0 0,4
24.04.2018 21:00:00 5,8 3,5 - - 18 10 - - W 1003,0 14 0 0,0
24.04.2018 20:00:00 7,2 3,1 - - 16 9 - - W 1002,6 30 18 0,0
24.04.2018 19:00:00 7,4 3,4 - - 18 10 - - W 1002,7 50 0 0,0
24.04.2018 18:00:00 8,0 5,2 - - 18 10 - - W 1002,9 35 6 0,0
24.04.2018 17:00:00 8,3 5,4 - - 22 12 - - WNW 1002,8 40 6 0,2
24.04.2018 16:00:00 7,5 4,7 - - 11 6 - - W 1003,4 35 6 0,2
24.04.2018 15:00:00 5,5 4,1 - - 29 16 - - WNW 1004,3 6 6 0,6
24.04.2018 14:00:00 6,7 4,9 - - 22 12 - - WNW 1004,1 23 0 0,8
24.04.2018 13:00:00 6,5 4,6 - - 22 12 - - WNW 1004,2 8 0 0,2
24.04.2018 12:00:00 7,2 4,0 - - 26 14 46 25 W 1004,2 40 12 0,0
24.04.2018 11:00:00 8,2 5,0 - - 31 17 52 28 W 1003,7 40 30 0,4
24.04.2018 10:00:00 7,0 4,1 7,5 6,7 39 21 57 31 W 1003,5 8 36 0,0
24.04.2018 09:00:00 6,4 3,3 - - 37 20 57 31 W 1003,2 30 18 0,6
24.04.2018 08:00:00 5,6 3,4 - - 34 18 46 25 W 1002,8 7 0 0,2
24.04.2018 07:00:00 4,9 3,3 - - 34 18 48 26 W 1002,2 8 0 0,8
24.04.2018 06:00:00 5,5 2,6 - - 31 17 54 29 W 1002,0 45 0 0,0
24.04.2018 05:00:00 5,3 2,9 - - 34 18 54 29 W 1002,1 21 0 0,2
24.04.2018 04:00:00 5,5 2,6 - - 37 20 52 28 W 1001,8 35 0 0,4
24.04.2018 03:00:00 4,8 3,0 - - 31 17 59 32 W 1001,8 9 0 0,4
24.04.2018 02:00:00 5,7 3,5 - - 35 19 55 30 W 1001,4 13 0 0,4
24.04.2018 01:00:00 5,8 3,3 - - 39 21 57 31 W 1001,2 35 - 0,2
24.04.2018 00:00:00 6,4 6,1 - - 9 5 - - WNW 1000,6 17 0 0,2
23.04.2018 23:00:00 5,9 5,6 - - 9 5 - - WNW 1000,6 21 0 0,2
23.04.2018 22:00:00 5,7 5,2 - - 2 1 - - SE 1000,2 50 0 1,8
23.04.2018 21:00:00 5,9 5,3 - - 4 2 - - NNE 999,9 4,8 0 1,0
23.04.2018 20:00:00 6,3 5,3 - - 8 4 - - ESE 1000,0 7 0 0,2
23.04.2018 19:00:00 6,9 4,7 - - 4 2 - - NE 1000,7 28 0 0,0
23.04.2018 18:00:00 6,8 4,3 - - 11 6 - - WSW 1002,0 40 0 0,0
23.04.2018 17:00:00 7,0 4,1 - - 18 10 - - SW 1002,6 10 0 0,0
23.04.2018 16:00:00 8,1 4,4 - - 24 13 - - WSW 1002,6 30 0 0,2
23.04.2018 15:00:00 8,1 4,4 - - 21 11 - - WSW 1003,2 20 0 0,0
23.04.2018 14:00:00 8,9 4,6 - - 26 14 46 25 W 1003,5 50 0 0,0
23.04.2018 13:00:00 8,2 5,4 - - 24 13 - - W 1003,6 45 0 0,2
23.04.2018 12:00:00 7,9 5,7 - - 31 17 48 26 W 1003,6 9 0 0,0
23.04.2018 11:00:00 8,0 4,0 - - 28 15 46 25 W 1003,3 45 0 0,0
23.04.2018 10:00:00 7,3 5,2 7,7 6,7 29 16 - - W 1003,3 50 0 0,0
23.04.2018 09:00:00 6,8 4,7 - - 18 10 - - W 1003,3 16 0 0,0
23.04.2018 08:00:00 6,2 5,3 - - 21 11 - - WNW 1002,9 11 0 0,6
23.04.2018 07:00:00 5,8 5,2 - - 22 12 - - WNW 1002,5 12 0 1,4
23.04.2018 06:00:00 6,3 5,3 - - 29 16 - - WNW 1001,3 14 0 1,6
23.04.2018 05:00:00 6,8 5,6 - - 22 12 - - WNW 1000,3 7 0 0,0
23.04.2018 04:00:00 6,9 5,8 - - 16 9 - - WNW 999,9 35 0 0,2
23.04.2018 03:00:00 7,0 5,4 - - 29 16 - - W 999,4 7 0 0,6
23.04.2018 02:00:00 7,3 5,2 - - 18 10 - - W 998,9 14 0 0,0
23.04.2018 01:00:00 7,2 5,5 - - 16 9 - - WSW 998,6 8 - 0,2
23.04.2018 00:00:00 6,9 5,5 - - 9 5 - - SW 998,9 50 0 0,2
22.04.2018 23:00:00 7,3 6,0 - - 16 9 - - SW 998,9 7 0 0,2
22.04.2018 22:00:00 7,5 6,2 - - 16 9 - - SW 998,8 17 0 1,0
22.04.2018 21:00:00 6,5 5,5 - - 8 4 - - SE 999,2 7 0 1,8
22.04.2018 20:00:00 6,7 5,2 - - 8 4 - - S 999,3 7 0 0,6
22.04.2018 19:00:00 7,3 4,5 - - 24 13 - - SW 999,3 40 0 0,0
22.04.2018 18:00:00 8,4 3,6 - - 26 14 - - SW 999,7 20 24 0,0
22.04.2018 17:00:00 8,6 4,3 - - 15 8 - - WSW 999,6 40 18 0,0
22.04.2018 16:00:00 9,2 4,9 - - 28 15 - - W 1000,1 40 18 0,0
22.04.2018 15:00:00 7,7 6,1 - - 18 10 - - W 1000,3 12 0 0,4
22.04.2018 14:00:00 8,4 5,4 - - 15 8 - - SSW 999,9 45 0 0,0
22.04.2018 13:00:00 8,7 5,8 - - 13 7 - - W 1000,2 50 0 0,4
22.04.2018 12:00:00 8,6 5,4 - - 9 5 - - WSW 1000,4 23 0 0,2
22.04.2018 11:00:00 8,9 5,4 - - 2 1 - - NW 1000,7 23 0 0,2
22.04.2018 10:00:00 8,9 5,2 7,7 6,7 9 5 - - SW 1001,0 35 0 0,0
22.04.2018 09:00:00 7,5 4,4 - - 5 3 - - E 1001,4 50 0 0,0
22.04.2018 08:00:00 6,5 4,1 - - 2 1 - - SW 1001,9 50 0 0,0
22.04.2018 07:00:00 4,3 2,3 - - 4 2 - - NW 1002,4 50 0 0,0
22.04.2018 06:00:00 2,4 0,8 - - 5 3 - - W 1003,2 45 0 0,0
22.04.2018 05:00:00 1,4 0,1 - - 4 2 - - WSW 1004,3 45 0 0,0
22.04.2018 04:00:00 2,8 1,5 - - 2 1 - - WSW 1005,0 45 0 0,0
22.04.2018 03:00:00 3,4 2,0 - - 4 2 - - ESE 1005,7 50 0 0,0
22.04.2018 02:00:00 4,9 2,8 - - 2 1 - - NW 1006,9 45 0 0,0
22.04.2018 01:00:00 5,5 3,2 - - 4 2 - - NW 1007,8 40 - 0,0
22.04.2018 00:00:00 5,0 2,6 - - 4 2 - - NNW 1008,9 50 0 0,0
21.04.2018 23:00:00 7,1 3,3 - - 2 1 - - NE 1009,4 50 0 0,0
21.04.2018 22:00:00 9,4 4,4 - - 2 1 - - NE 1009,8 50 0 0,0
21.04.2018 21:00:00 11,3 4,3 - - 11 6 - - SE 1010,5 50 0 0,0
21.04.2018 20:00:00 12,0 5,7 - - 8 4 - - ESE 1011,0 45 0 0,0
21.04.2018 19:00:00 13,4 5,3 - - 5 3 - - WSW 1011,9 50 6 0,0
21.04.2018 18:00:00 13,7 4,8 - - 15 8 - - WSW 1012,6 45 18 0,0
21.04.2018 17:00:00 13,7 3,8 - - 13 7 - - SW 1013,4 50 12 0,0
21.04.2018 16:00:00 13,7 3,8 - - 11 6 - - SW 1013,9 30 36 0,0
21.04.2018 15:00:00 13,6 2,8 - - 15 8 - - S 1015,0 40 6 0,0
21.04.2018 14:00:00 12,9 4,9 - - 15 8 - - SSE 1015,8 45 0 0,0
21.04.2018 13:00:00 11,8 3,7 - - 15 8 - - ESE 1016,8 35 18 0,0
21.04.2018 12:00:00 10,9 4,7 - - 8 4 - - SE 1017,9 50 30 0,0
21.04.2018 11:00:00 10,6 5,0 - - 8 4 - - SSW 1018,7 50 6 0,0
21.04.2018 10:00:00 8,5 3,7 7,7 6,7 13 7 - - E 1019,2 50 36 0,0
21.04.2018 09:00:00 8,0 5,1 - - 13 7 - - E 1019,7 40 36 0,0
21.04.2018 08:00:00 7,0 4,1 - - 5 3 - - S 1020,5 45 0 0,0
21.04.2018 07:00:00 5,1 3,9 - - 8 4 - - E 1020,7 35 0 0,0
21.04.2018 06:00:00 3,9 2,6 - - 4 2 - - ESE 1021,0 40 0 0,0
21.04.2018 05:00:00 1,8 0,7 - - 4 2 - - W 1021,7 30 0 0,0
21.04.2018 04:00:00 4,7 3,1 - - 5 3 - - N 1021,7 45 0 0,0
21.04.2018 03:00:00 3,3 1,9 - - 11 6 - - SW 1022,5 35 0 0,0
21.04.2018 02:00:00 3,6 1,8 - - 4 2 - - N 1022,8 35 0 0,0
21.04.2018 01:00:00 5,6 3,1 - - 13 7 - - SW 1022,6 45 - 0,0
21.04.2018 00:00:00 5,9 4,3 - - 8 4 - - SW 1022,7 40 0 0,0

tt = temperature
td = dewpoint
tt -20cm = temperature -20cm
tt -100cm = temperature -100cm
ff = wind speed
fx = gusts
dd = wind direction
ppp = reduced air pressure
vv = visibility
sd = sunshine duration
rr = precipitation

Next stations